Location: Unspecified
(48.9757°N, 0.0000°E)
Time: 23:49:47
(UTC+00:00)

OTV 5 (USA 277) - Visible Passes

Search period start: 18 August 2019 00:00
Search period end: 28 August 2019 00:00
Orbit: 305 x 329 km, 54.5° (Epoch: 11 August)

Date Brightness Start Highest point End Pass type
(mag) Time Alt. Az. Time Alt. Az. Time Alt. Az.
18 Aug ? 01:42:14 17° NE 01:42:14 17° NE 01:43:16 10° NE visible
18 Aug ? 03:13:26 10° NW 03:15:50 30° NNE 03:18:14 10° E visible
19 Aug ? 01:56:30 20° NNE 01:56:30 20° NNE 01:58:01 10° ENE visible
19 Aug ? 03:27:58 10° NW 03:30:32 46° NNE 03:33:06 10° E visible
20 Aug ? 02:11:00 25° NNE 02:11:00 25° NNE 02:12:53 10° ENE visible
20 Aug ? 03:42:30 10° WNW 03:45:08 88° SSW 03:47:47 10° ESE visible
21 Aug ? 02:25:53 31° NE 02:25:53 31° NE 02:27:48 10° E visible
21 Aug ? 03:57:09 10° WNW 03:59:39 37° SW 04:02:07 10° SSE visible
22 Aug ? 02:41:20 24° ESE 02:41:20 24° ESE 02:42:36 10° ESE visible
22 Aug ? 04:12:20 11° W 04:14:01 17° SW 04:15:50 10° S visible
24 Aug ? 19:30:57 10° SE 19:31:35 11° SE 19:32:13 10° ESE visible
24 Aug ? 21:02:48 10° WSW 21:04:05 25° SW 21:04:05 25° SW visible
25 Aug ? 19:43:41 10° SSW 19:45:53 23° SE 19:48:05 10° E visible
25 Aug ? 21:17:28 10° W 21:19:13 32° WNW 21:19:13 32° WNW visible
26 Aug ? 19:57:43 10° SW 20:00:19 54° SE 20:02:55 10° ENE visible
26 Aug ? 21:32:20 10° W 21:33:52 24° NW 21:33:52 24° NW visible
27 Aug ? 20:12:13 10° WSW 20:14:51 67° NNW 20:17:20 11° ENE visible
27 Aug ? 21:47:14 10° WNW 21:48:13 17° NW 21:48:13 17° NW visible
